DW8293 Weather Reports


Display with metric or nautical units.
time (UTC)temp
F
wind
direction
speed
MPH
gust
MPH
rain 1hr
in
rain 24hr
in
rain mn
in
humidity
%
barometer
mb
20260509102705 59 131 5.0 16.0 0.00 0.00 0.00 27 1020.4
20260509101805 59 108 7.0 16.0 0.00 0.00 0.00 28 1020.8
20260509100903 59 164 4.0 17.0 0.00 0.00 0.00 27 1020.7
20260509100004 58 123 6.0 13.0 0.00 0.00 0.00 27 1020.8
20260509095424 58 137 6.0 14.0 0.00 0.00 0.00 26 1020.7
20260509094503 57 132 8.0 13.0 0.00 0.00 0.00 26 1021.0
20260509093603 58 120 3.0 13.0 0.00 0.00 0.00 27 1021.1
20260509092703 57 156 3.0 16.0 0.00 0.00 0.00 26 1021.3
20260509091803 57 135 8.0 13.0 0.00 0.00 0.00 27 1021.3
20260509090903 56 131 7.0 11.0 0.00 0.00 0.00 27 1021.3
20260509090024 56 137 6.0 13.0 0.00 0.00 0.00 30 1021.5
20260509085403 56 105 4.0 13.0 0.00 0.00 0.00 30 1021.5
20260509084526 55 96 9.0 17.0 0.00 0.00 0.00 31 1021.6
20260509083603 54 134 14.0 17.0 0.00 0.00 0.00 32 1021.4
20260509082703 55 139 4.0 15.0 0.00 0.00 0.00 31 1021.8
20260509081803 54 130 8.0 15.0 0.00 0.00 0.00 33 1021.7
20260509080924 54 128 8.0 11.0 0.00 0.00 0.00 32 1021.8
20260509080003 54 116 6.0 11.0 0.00 0.00 0.00 33 1021.9
20260509075403 54 143 4.0 11.0 0.00 0.00 0.00 33 1022.1
20260509074503 53 165 4.0 11.0 0.00 0.00 0.00 34 1021.9
20260509073603 52 169 7.0 13.0 0.00 0.00 0.00 33 1022.0
20260509072703 52 191 6.0 11.0 0.00 0.00 0.00 33 1022.3
20260509071803 53 161 3.0 11.0 0.00 0.00 0.00 35 1022.3
20260509070903 51 172 6.0 11.0 0.00 0.00 0.00 34 1022.2
20260509070003 52 123 5.0 9.0 0.00 0.00 0.00 34 1022.1
20260509065403 52 128 4.0 11.0 0.00 0.00 0.00 35 1022.1
20260509064503 51 122 3.0 11.0 0.00 0.00 0.00 36 1022.2
20260509063605 51 123 3.0 8.0 0.00 0.00 0.00 37 1022.2
20260509062703 50 132 3.0 7.0 0.00 0.00 0.00 38 1022.3
20260509061826 50 110 3.0 7.0 0.00 0.00 0.00 40 1022.3
20260509060903 49 114 2.0 4.0 0.00 0.00 0.00 43 1022.4
20260509060005 48 134 2.0 4.0 0.00 0.00 0.00 45 1022.3
20260509055403 47 119 3.0 8.0 0.00 0.00 0.00 44 1022.4
20260509054503 46 115 3.0 7.0 0.00 0.00 0.00 48 1022.6
20260509053603 45 125 4.0 7.0 0.00 0.00 0.00 49 1022.5
20260509052703 45 123 2.0 4.0 0.00 0.00 0.00 50 1022.7
20260509051803 44 125 1.0 4.0 0.00 0.00 0.00 52 1022.7
20260509050903 43 149 2.0 6.0 0.00 0.00 0.00 53 1022.7
20260509050026 42 98 2.0 4.0 0.00 0.00 0.00 57 1022.8
20260509045403 41 95 2.0 4.0 0.00 0.00 0.00 59 1022.6
20260509044503 40 107 2.0 4.0 0.00 0.00 0.00 59 1022.8
20260509043603 41 112 1.0 2.0 0.00 0.00 0.00 64 1022.8
20260509042703 40 112 1.0 2.0 0.00 0.00 0.00 63 1022.6
20260509041824 39 112 1.0 2.0 0.00 0.00 0.00 64 1022.6
20260509040924 39 112 0.0 2.0 0.00 0.00 0.00 61 1022.7
20260509040003 38 123 1.0 2.0 0.00 0.00 0.00 62 1022.5
20260509035403 38 135 1.0 2.0 0.00 0.00 0.00 61 1022.6
20260509034503 37 135 2.0 2.0 0.00 0.00 0.00 62 1022.8
20260509033603 37 135 0.0 4.0 0.00 0.00 0.00 59 1022.6
20260509032703 38 126 2.0 4.0 0.00 0.00 0.00 58 1022.8
20260509031824 37 112 1.0 2.0 0.00 0.00 0.00 61 1022.8
20260509030903 36 112 0.0 2.0 0.00 0.00 0.00 62 1022.6
20260509030004 37 112 1.0 2.0 0.00 0.00 0.00 60 1022.6
20260509025403 36 112 1.0 2.0 0.00 0.00 0.00 62 1022.4
20260509024503 34 0 0.0 0.0 0.00 0.00 0.00 70 1022.5
20260509023603 33 0 0.0 0.0 0.00 0.00 0.00 72 1022.5
20260509022726 35 0 0.0 0.0 0.00 0.00 0.00 69 1022.4
20260509021803 36 0 0.0 0.0 0.00 0.00 0.00 63 1022.6
20260509020903 35 0 0.0 0.0 0.00 0.00 0.00 64 1022.6
20260509020003 36 0 0.0 0.0 0.00 0.00 0.00 65 1022.6
20260509015405 36 0 0.0 0.0 0.00 0.00 0.00 62 1022.7
20260509014503 36 0 0.0 0.0 0.00 0.00 0.00 66 1022.6
20260509013607 36 0 0.0 0.0 0.00 0.00 0.00 63 1022.6
20260509012705 36 0 0.0 0.0 0.00 0.00 0.00 64 1022.7
20260509011803 37 0 0.0 0.0 0.00 0.00 0.00 68 1022.5
20260509010903 36 0 0.0 0.0 0.00 0.00 0.00 72 1022.7
20260509010003 36 0 0.0 0.0 0.00 0.00 0.00 72 1022.6
20260509005403 36 0 0.0 0.0 0.00 0.00 0.00 74 1022.6
20260509004505 36 0 0.0 0.0 0.00 0.00 0.00 74 1022.7
20260509003603 37 0 0.0 0.0 0.00 0.00 0.00 74 1022.7
20260509002704 38 112 0.0 2.0 0.00 0.00 0.00 70 1022.7
20260509001803 38 112 0.0 2.0 0.00 0.00 0.00 71 1022.8
20260509000903 38 112 2.0 2.0 0.00 0.00 0.00 71 1022.9
20260509000024 38 0 0.0 0.0 0.00 0.00 0.00 67 1022.9
20260508235403 38 0 0.0 0.0 0.00 0.00 0.00 64 1023.0
20260508234505 38 0 0.0 0.0 0.00 0.00 0.00 61 1023.0
20260508233603 40 0 0.0 0.0 0.00 0.00 0.00 58 1022.8
20260508232705 41 112 0.0 2.0 0.00 0.00 0.00 55 1022.7
20260508231803 41 112 0.0 2.0 0.00 0.00 0.00 53 1022.9
20260508230903 42 112 1.0 2.0 0.00 0.00 0.00 52 1023.0
20260508230003 42 112 1.0 2.0 0.00 0.00 0.00 52 1022.8
20260508225404 42 112 1.0 2.0 0.00 0.00 0.00 51 1023.0
20260508224503 42 0 0.0 0.0 0.00 0.00 0.00 52 1022.7
20260508223605 42 112 0.0 2.0 0.00 0.00 0.00 53 1022.8
20260508222707 42 112 0.0 2.0 0.00 0.00 0.00 53 1022.8
20260508221803 41 0 0.0 0.0 0.00 0.00 0.00 55 1022.7
20260508220903 43 112 0.0 2.0 0.00 0.00 0.00 53 1022.7
20260508220003 43 112 0.0 2.0 0.00 0.00 0.00 50 1022.6
20260508215403 44 112 0.0 2.0 0.00 0.00 0.00 47 1022.7
20260508214504 46 112 0.0 2.0 0.00 0.00 0.00 43 1022.6
20260508213603 46 112 0.0 2.0 0.00 0.00 0.00 43 1022.6
20260508212703 47 121 1.0 4.0 0.00 0.00 0.00 42 1022.5
20260508211804 47 121 0.0 6.0 0.00 0.00 0.00 42 1022.6
20260508210903 47 116 2.0 4.0 0.00 0.00 0.00 41 1022.4
20260508210003 48 115 1.0 4.0 0.00 0.00 0.00 40 1022.2
20260508205403 49 129 2.0 4.0 0.00 0.00 0.00 38 1022.1
20260508204505 49 138 2.0 8.0 0.00 0.00 0.00 39 1022.1
20260508203628 49 146 2.0 7.0 0.00 0.00 0.00 38 1022.0
20260508202703 50 161 3.0 8.0 0.00 0.00 0.00 37 1022.0
20260508201806 51 157 4.0 11.0 0.00 0.00 0.00 36 1021.8
20260508200903 51 162 4.0 11.0 0.00 0.00 0.00 36 1021.7
20260508200003 51 163 4.0 9.0 0.00 0.00 0.00 35 1021.9
20260508195407 51 166 4.0 11.0 0.00 0.00 0.00 36 1021.6
20260508194503 52 170 4.0 9.0 0.00 0.00 0.00 35 1021.6
20260508193603 52 168 4.0 8.0 0.00 0.00 0.00 35 1021.4
20260508192703 53 174 4.0 11.0 0.00 0.00 0.00 34 1021.3
20260508191805 53 168 7.0 11.0 0.00 0.00 0.00 34 1021.6
20260508190905 53 152 4.0 9.0 0.00 0.00 0.00 35 1021.3
20260508190003 54 154 5.0 11.0 0.00 0.00 0.00 34 1021.4
20260508185403 54 153 4.0 9.0 0.00 0.00 0.00 34 1021.0
20260508184503 55 177 6.0 13.0 0.00 0.00 0.00 33 1020.8
20260508183605 56 161 7.0 15.0 0.00 0.00 0.00 32 1020.6
20260508182705 56 190 5.0 11.0 0.00 0.00 0.00 32 1020.9
20260508181803 56 183 7.0 11.0 0.00 0.00 0.00 32 1020.7
20260508180903 57 191 4.0 9.0 0.00 0.00 0.00 32 1020.5
20260508180005 57 157 3.0 8.0 0.00 0.00 0.00 33 1020.4
20260508175403 58 181 3.0 11.0 0.00 0.00 0.00 32 1020.4
20260508174507 58 190 5.0 9.0 0.00 0.00 0.00 31 1020.3
20260508173603 58 186 4.0 11.0 0.00 0.00 0.00 31 1020.3
20260508172703 58 167 6.0 11.0 0.00 0.00 0.00 31 1020.1
20260508171824 59 168 6.0 11.0 0.00 0.00 0.00 31 1019.8
20260508170903 60 189 5.0 13.0 0.00 0.00 0.00 31 1020.1
20260508170003 60 164 4.0 11.0 0.00 0.00 0.00 31 1020.1
20260508165403 60 165 8.0 11.0 0.00 0.00 0.00 31 1020.1
20260508164503 59 148 3.0 11.0 0.00 0.00 0.00 31 1020.1
20260508163603 59 154 6.0 11.0 0.00 0.00 0.00 31 1020.0
20260508162703 59 151 7.0 11.0 0.00 0.00 0.00 30 1020.0
20260508161803 59 153 4.0 15.0 0.00 0.00 0.00 31 1020.0
20260508160903 59 171 6.0 14.0 0.00 0.00 0.00 30 1020.2
20260508160004 60 139 6.0 14.0 0.00 0.00 0.00 30 1019.9
20260508155403 60 143 6.0 14.0 0.00 0.00 0.00 30 1020.0
20260508154503 61 175 6.0 13.0 0.00 0.00 0.00 28 1020.0
20260508153606 60 174 6.0 11.0 0.00 0.00 0.00 30 1020.0
20260508152703 62 201 6.0 13.0 0.00 0.00 0.00 28 1020.0
20260508151803 62 159 3.0 11.0 0.00 0.00 0.00 29 1019.9
20260508150903 63 174 4.0 11.0 0.00 0.00 0.00 28 1019.9
20260508150003 62 166 4.0 13.0 0.00 0.00 0.00 29 1019.8
20260508145403 63 147 4.0 11.0 0.00 0.00 0.00 29 1020.0
20260508144503 62 153 4.0 14.0 0.00 0.00 0.00 29 1019.9
20260508143603 62 162 3.0 14.0 0.00 0.00 0.00 29 1019.9
20260508142703 63 201 7.0 13.0 0.00 0.00 0.00 28 1020.0
20260508141803 63 159 4.0 11.0 0.00 0.00 0.00 30 1020.0
20260508140903 63 198 5.0 11.0 0.00 0.00 0.00 28 1020.2
20260508140024 63 200 5.0 14.0 0.00 0.00 0.00 30 1020.2
20260508135403 63 187 5.0 14.0 0.00 0.00 0.00 30 1020.4
20260508134506 61 184 8.0 14.0 0.00 0.00 0.00 30 1020.3
20260508133603 63 203 8.0 13.0 0.00 0.00 0.00 29 1020.3
20260508132703 62 220 7.0 16.0 0.00 0.00 0.00 29 1020.3
20260508131805 64 218 2.0 11.0 0.00 0.00 0.00 28 1020.4
20260508130926 63 195 4.0 16.0 0.00 0.00 0.00 29 1020.4
20260508130004 63 170 6.0 11.0 0.00 0.00 0.00 28 1020.6
20260508125424 61 176 7.0 9.0 0.00 0.00 0.00 32 1020.4
20260508124506 62 193 2.0 17.0 0.00 0.00 0.00 30 1020.5
20260508123603 61 224 6.0 20.0 0.00 0.00 0.00 31 1020.6
20260508122724 61 155 12.0 20.0 0.00 0.00 0.00 31 1020.7
20260508121803 60 154 6.0 16.0 0.00 0.00 0.00 32 1020.5
20260508120903 61 150 6.0 15.0 0.00 0.00 0.00 32 1020.7
20260508120024 60 176 7.0 15.0 0.00 0.00 0.00 32 1020.7
20260508115403 60 214 8.0 15.0 0.00 0.00 0.00 32 1020.8
20260508114503 61 218 5.0 15.0 0.00 0.00 0.00 32 1020.8
20260508113603 60 195 4.0 15.0 0.00 0.00 0.00 33 1020.7
20260508112703 60 223 8.0 15.0 0.00 0.00 0.00 33 1020.6
20260508111803 60 194 5.0 16.0 0.00 0.00 0.00 32 1020.7
20260508110905 59 165 8.0 11.0 0.00 0.00 0.00 34 1020.8
20260508110005 61 182 4.0 14.0 0.00 0.00 0.00 32 1020.8
20260508105403 60 160 6.0 14.0 0.00 0.00 0.00 33 1021.0
20260508104526 60 153 6.0 14.0 0.00 0.00 0.00 33 1020.7
20260508103605 59 179 7.0 17.0 0.00 0.00 0.00 32 1020.8